EGCC

Manchester International Airport

Airport
ICAO code
EGCC
IATA Code
MAN
Summary
ICAO Region
EUR
ICAO Territory
Location

Ringway, Manchester, England,

Serving
Manchester
Coordinates
53° 21' 32" N , 2° 16' 27" W
KCC
Metar
Observation
EGCC 010820Z 21007KT 9999 VCSH FEW032 12/10 Q1002
Station
Manchester Airport
Date/Time
2022-10-01 08:20:00
Wind direction
210°
Wind speed
07 kts
Lowest cloud amount
few clouds
Temperature
12°C
Dew point
10°C
Humidity
87%
QNH
1002 hPa
Weather condition
in vicinity: showers

Description

International airport serving Greater Manchester and the north-west region of England; has a co-located railway station with frequent services to many northern England destinations. Trades commercially as "Manchester International Airport"

Climatology

Temperate Marine climate/Oceanic climate (Köppen climate classification Cfb). Moderately cool summer and comparatively warm winter with a temperature range of only 14°C. Prevailing south-westerly winds from the Atlantic Ocean.

Runways

Designator Length Width Surface Rops
05R/23L 3047 46 CON Yes/Yes
05L/23R 3048 46 ASP Yes/Yes

SKYbrary Partners:

Safety knowledge contributed by: